Weather History for CYQI - September, 2008

Change the Weather History Date:

Sunday, September 28, 2008

  Actual Average Record
Temperature  
Mean Temperature 62 °F -  
Max Temperature 66 °F 59 °F 75 °F (2003)
Min Temperature 57 °F 46 °F 35 °F (1997)
Degree Days  
Heating Degree Days 4    
Growing Degree Days 12 (Base 50)    
Moisture  
Dew Point 62 °F    
Average Humidity 94    
Maximum Humidity 100    
Minimum Humidity 84    
Precipitation  
Precipitation 0.94 in - - ()
Sea Level Pressure  
Sea Level Pressure 29.84 in    
Wind  
Wind Speed 13 mph ()    
Max Wind Speed 30 mph    
Max Gust Speed 50 mph    
Visibility 6.6 miles    
Events Rain    
Averages and records for this station are not official NWS values.
T = Trace of Precipitation, MM = Missing Value Source: Averaged Metar Reports

Daily Weather History Graph

Daily Weather History Graph

Search for Another Location

Airport or City:

Trip Planner

Search our weather history database for the weather conditions in past years. The results will help you decide how hot, cold, wet, or windy it might be!

Date:

Astronomy

Sep. 28, 2008 Rise Set
Actual Time 7:18 AM ADT 7:09 PM ADT
Civil Twilight 6:50 AM ADT 7:38 PM ADT
Nautical Twilight 6:16 AM ADT 8:11 PM ADT
Astronomical Twilight 5:42 AM ADT 8:45 PM ADT
Moon 6:29 AM ADT 6:35 PM ADT
Length of Visible Light 12h 48m
Length of Day
11h 51m
Waning Crescent, 1% of the Moon is Illuminated
Sep 28
Waning Crescent
Sep 29
New
Oct 7
First Quarter
Oct 14
Full
Oct 21
Last Quarter

Hourly Weather History & Observations

Time (ADT) Temp. Dew Point Humidity Pressure Visibility Wind Dir Wind Speed Gust Speed Precip Events Conditions
12:00 AM 66.2 °F 62.6 °F 88% 30.20 in 12.0 mi SSE 13.8 mph 23.0 mph N/A   Overcast
1:00 AM 64.4 °F 62.6 °F 94% 30.19 in 12.0 mi SSE 11.5 mph - N/A   Overcast
2:00 AM 64.4 °F 62.6 °F 94% 30.18 in 12.0 mi SSE 10.4 mph - N/A   Overcast
3:00 AM 65 °F 63 °F 89% 30.15 in 12 mi South 11.5 mph - -   Partly Cloudy
3:00 AM 64.4 °F 62.6 °F 94% 30.15 in 12.0 mi South 11.5 mph - N/A   Overcast
4:00 AM 64.4 °F 62.6 °F 94% 30.13 in 12.0 mi SSE 13.8 mph 20.7 mph N/A   Overcast
5:00 AM 64.4 °F 62.6 °F 94% 30.11 in 12.0 mi SSE 13.8 mph - N/A   Overcast
6:00 AM 64.4 °F 62.6 °F 94% 30.09 in 12.0 mi SE 13.8 mph 19.6 mph N/A   Overcast
7:00 AM 64.4 °F 62.6 °F 94% 30.09 in 12.0 mi SSE 15.0 mph 21.9 mph N/A   Overcast
8:00 AM 64.4 °F 62.6 °F 94% 30.09 in 9.0 mi SSE 12.7 mph - N/A   Overcast
9:00 AM 66 °F 62 °F 84% 30.06 in 9 mi SE 13.8 mph - -   Overcast
9:00 AM 66.2 °F 62.6 °F 88% 30.06 in 9.0 mi SE 13.8 mph - N/A   Overcast
10:00 AM 66.2 °F 62.6 °F 88% 30.04 in 8.0 mi ESE 11.5 mph - N/A   Overcast
10:30 AM - - N/A% - 10.0 mi SE 13.8 mph - N/A Rain Light Rain Showers
11:00 AM 66.2 °F 62.6 °F 88% 30.05 in 10.0 mi ESE 9.2 mph - N/A Rain Light Rain Showers
12:00 PM 66.2 °F 62.6 °F 88% 30.01 in 10.0 mi East 9.2 mph - N/A   Overcast
1:00 PM 66.2 °F 64.4 °F 94% 29.96 in 10.0 mi East 9.2 mph - N/A Rain Light Rain Showers
2:00 PM 64.4 °F 64.4 °F 100% 29.93 in 4.0 mi East 9.2 mph - N/A Rain Light Rain Showers
2:18 PM - - N/A% - 2.5 mi East 15.0 mph - N/A Rain Light Rain Showers
3:00 PM 65 °F 64 °F 93% 29.83 in 2 mi East 17.3 mph - - Rain Heavy Rain
3:00 PM 64.4 °F 64.4 °F 100% 29.83 in 2.5 mi East 15.0 mph 21.9 mph N/A Rain Heavy Rain
3:48 PM - - N/A% - 1.0 mi East 17.3 mph 27.6 mph N/A Rain Heavy Rain
4:00 PM 64.4 °F 62.6 °F 94% 29.73 in 1.0 mi ENE 16.1 mph 25.3 mph N/A Rain Heavy Rain
4:11 PM - - N/A% - 3.0 mi ENE 23.0 mph 32.2 mph N/A Rain Heavy Rain
4:44 PM - - N/A% - 8.0 mi ENE 19.6 mph 32.2 mph N/A Rain Light Rain
5:00 PM 66.2 °F 64.4 °F 94% 29.57 in 8.0 mi ENE 20.7 mph 34.5 mph N/A Rain Light Rain
5:39 PM - - N/A% - 3.0 mi East 27.6 mph 38.0 mph N/A Rain Light Rain
6:00 PM 66.2 °F 64.4 °F 94% 29.48 in 2.5 mi East 26.5 mph 49.5 mph N/A Rain Light Rain
6:07 PM - - N/A% - 2.0 mi ESE 27.6 mph 44.9 mph N/A Rain Rain
7:00 PM 62.6 °F 62.6 °F 100% 29.36 in 2.0 mi ESE 29.9 mph 43.7 mph N/A Rain Light Rain
8:00 PM 59.0 °F 59.0 °F 100% 29.24 in 2.0 mi ESE 25.3 mph 34.5 mph N/A Rain Rain
9:00 PM 57 °F 57 °F 100% 29.18 in 2 mi East 11.5 mph - - Rain Light Rain
9:00 PM 57.2 °F 57.2 °F 100% 29.18 in 2.0 mi East 11.5 mph - N/A Rain Light Rain
9:45 PM - - N/A% - 2.0 mi West 13.8 mph 23.0 mph N/A Rain Rain
10:00 PM 59.0 °F 59.0 °F 100% 29.30 in 2.0 mi West 16.1 mph 25.3 mph N/A Rain Light Rain
11:00 PM 57.2 °F 57.2 °F 100% 29.43 in 2.0 mi West 18.4 mph 28.8 mph N/A Rain Rain